Home   Weather   Fairfield Arms   Past weeks
Flag for USA

Past Weather in Fairfield Arms, South Carolina, USA — Yesterday and Last 2 Weeks

Now
63 °F

Sunny.


Feels Like: 63 °F
Forecast: 64 / 39 °F
Wind: No wind

Location: Columbia Owens Downtown Airport

Current Time: Dec 5, 2019 at 5:38:33 pm

Latest Report: Dec 5, 2019 at 4:53 pm


Visibility: 10 mi

Pressure: 30.12 "Hg

Humidity: 26%

Dew Point: 27 °F

Location of Fairfield ArmsLocation

Past Weather in Fairfield Arms — Graph

°F

Fairfield Arms Temperature Yesterday

Maximum temperature yesterday: 62 °F (at 3:53 pm)
Minimum temperature yesterday: 36 °F (at 6:53 am)
Average temperature yesterday: 49 °F

High & Low Weather Summary for the Past Weeks

 TemperatureHumidityPressure
High73 °F (Nov 27, 2:36 pm)96% (Nov 21, 7:53 am)30.35 "Hg (Nov 21, 7:53 am)
Low32 °F (Dec 3, 6:53 am)21% (Nov 28, 2:53 pm)29.56 "Hg (Dec 1, 3:53 pm)
Average53 °F66%29.97 "Hg
* Reported Nov 20 3:53 pm — Dec 5 3:53 pm, Fairfield Arms. Weather by CustomWeather, © 2019

Note: Actual official high and low records may vary slightly from our data, if they occured in-between our weather recording intervals... More about our weather records

Fairfield Arms Weather History for the Previous 24 Hours

Scroll right to see more
 ConditionsComfort  
Time TempWeatherWind HumidityBarometerVisibility
3:53 pm
Thu, Dec 5
65 °FSunny.3 mph24%30.10 "Hg10 mi
2:53 pm64 °FSunny.6 mph24%30.09 "Hg10 mi
1:53 pm63 °FSunny.7 mph26%30.09 "Hg10 mi
12:53 pm62 °FSunny.No wind26%30.10 "Hg10 mi
11:53 am60 °FSunny.3 mph30%30.11 "Hg10 mi
10:53 am59 °FSunny.7 mph31%30.13 "Hg10 mi
9:53 am55 °FSunny.7 mph42%30.11 "Hg10 mi
8:53 am45 °FSunny.No wind71%30.07 "Hg10 mi
7:53 am40 °FSunny.No wind80%30.05 "Hg10 mi
6:53 am38 °FClear.No wind83%30.02 "Hg10 mi
5:53 am39 °FClear.No wind76%29.99 "Hg10 mi
4:53 am42 °FClear.No wind68%29.96 "Hg10 mi
2:53 am50 °FClear.6 mph46%29.90 "Hg10 mi
1:53 am48 °FClear.6 mph52%29.89 "Hg10 mi
12:53 am44 °FClear.6 mph65%29.88 "Hg10 mi
11:53 pm
Wed, Dec 4
48 °FClear.5 mph50%29.89 "Hg10 mi
10:53 pm49 °FClear.No wind48%29.88 "Hg10 mi
9:53 pm53 °FClear.5 mph41%29.86 "Hg10 mi
8:53 pm53 °FClear.5 mph45%29.85 "Hg10 mi
7:53 pm53 °FClear.6 mph45%29.84 "Hg10 mi
6:53 pm50 °FClear.No wind54%29.82 "Hg10 mi
5:53 pm57 °FClear.3 mph37%29.81 "Hg10 mi
Weather by CustomWeather, © 2019

See weather overview

Advertising